STARLINK-5734, 55612

Orbit data source: Space-Track

STARLINK-5734, 55612 is a payload satellite owned by SpaceX/Seattle (US) in LEO that was launched on Sun, 12 Feb 2023 UTC via an FALCON 9 launch vehicle from the Air Force Eastern Test Range (AFETR). Payload-class satellites include a variety of spacecraft equipped with specific instruments for various scientific and technological missions. These include communications satellites like Starlink; space stations such as the ISS; scientific satellites like the Hubble; Earth observation satellites from companies like Planet Labs, Umbra, and HawkEye 360; GPS; miniature CubeSats for education and research; and military/defense satellites.

Loading next visibility...
Identifier
55612, 2023-020AV
Orbit
LEO
Country
Flag of USUS
Related business
Manufacturer
SpaceX/Seattle
Mission
Operational Commercial Communications
Bus & Motor
STARLINK, Unknown motor
Mass
305 kg wet, ~290 kg dry
Launch date (UTC)
2023-02-12 (3 years ago)
Launch vehicle
FALCON 9
Launch site
Air Force Eastern Test Range (AFETR)
Object type
Payload
Rocket body
Debris
Shape & HBR
Box + 1 Pan, 10.1 m
Radar Cross Section
13.562 m², Large (>1 m²)

Expand to show TLE details & history
Last TLE update: 11 hours ago

TLE from 11 hours ago
0 STARLINK-5734
1 55612U 23020AV  26062.27087414 -.00000330  00000-0 -93277-5 0  9996
2 55612  43.0056  26.5512 0001144 270.9491  89.1220 15.02533689168102
Epoch: 2026-03-03T06:30Z
TLE epoch observation values (Epoch: 2026-03-03T06:30:03.525Z)
Latitude
-0.00005°
Longitude
127.98413°
Altitude
558.853 km
Speed
7.584 km/s
True Right ascension
01h 46m 12s
True Declination
0° 00' 00"
Sunlit
Object was in daylight at epoch
Visualization orbit readout
Latitude
Unknown
Longitude
Unknown
Altitude
Unknown
Speed
Unknown
Apparent Right ascension
Unknown
Apparent Declination
Unknown
Sunlit
N/A
Visualization observer readout
Local Sidereal Time
20:54:21
Azimuth
Unknown
Elevation
Unknown
Doppler factor
Unknown
Orbital elements
Apogee altitude
561.803 km
Perigee altitude
560.216 km
Semi-major axis
6,939.147 km
Eccentricity
0.00011
Inclination
43.0056°
RAAN
26.5512°
Arg. of periapsis
270.9491°
True anomaly
89.13511°
Mean anomaly
89.122°
Eccentric anomaly
89.12855°
Mean motion
3.75478 °/min
Orbital period
95.88 mins
BSTAR
-0.0000093277
Loading maneuver chart data...
Computing Atmospheric mass density...

Documentation

Showing up to 5 results
|